Regional Weather Roundup
Issued by NWS

Home | Current Version | Previous Version | Text Only | Print | Product List | Glossary Off
Versions: 1 2 3 4 5 6 7 8 9 10 11 12 13 14 15 16 17 18 19 20 21 22 23 24 25 26 27 28 29 30 31 32 33 34 35 36 37 38 39 40 41 42 43 44 45 46 47 48 49 50

000
ASUS43 KMPX 200801
RWRMN
WEATHER ROUNDUP FOR MINNESOTA
NATIONAL WEATHER SERVICE TWIN CITIES/CHANHASSEN MN
300 AM CDT FRI OCT 20 2017


NOTE: "FAIR" INDICATES FEW OR NO CLOUDS BELOW 12,000 FEET WITH NO
SIGNIFICANT WEATHER AND/OR OBSTRUCTIONS TO VISIBILITY. N/A MEANS
CURRENT SKY AND/OR WEATHER CONDITIONS ARE NOT AVAILABLE.

MNZ060>063-068>070-200900-
   Twin Cities Metro

CITY           SKY/WX    TMP DP  RH WIND       PRES   REMARKS
TWIN CITIES    FAIR      55  50  83 SE6       29.91S
ST PAUL        FAIR      53  47  79 CALM      29.92F
CRYSTAL        FAIR      53  45  74 SE5       29.89S
BLAINE         FAIR      55  48  76 S7        29.90S
LAKEVILLE      FAIR      54  48  82 S6        29.92S
EDEN PRAIRIE   FAIR      59  51  75 S8        29.89F
SOUTH ST PAUL  FAIR      53  47  78 CALM      29.92S
LAKE ELMO      FAIR      55  46  71 S7        29.93S
$$
MNZ001>005-007-008-013>017-022>024-027-028-200900-
   Northwest Minnesota

CITY           SKY/WX    TMP DP  RH WIND       PRES   REMARKS
BEMIDJI        FAIR      52  43  71 S6        29.76F
HALLOCK        FAIR      48  39  71 SE9       29.66F
ROSEAU         FAIR      50  43  76 S7        29.70F
WARROAD        FAIR      54  45  71 S5        29.71F
CROOKSTON      FAIR      54  46  76 S10       29.68F
FOSSTON        FAIR      55  45  67 S9        29.73S
DETROIT LAKES  FAIR      52  46  82 SE7       29.76F
MOORHEAD       FAIR      55  46  71 SE15      29.70F
PARK RAPIDS    FAIR      49  43  80 SE8       29.78F
MAHNOMEN       FAIR      58  47  67 S7        29.72F
$$
MNZ006-009>011-018-025>026-200900-
   North Central Minnesota

CITY           SKY/WX    TMP DP  RH WIND       PRES   REMARKS
BAUDETTE       FAIR      48  39  71 SE6       29.74F
FLAG ISLAND    FAIR      52  45  76 SE3       29.70F
INTL FALLS     FAIR      46  36  68 SE3       29.78S
WASKISH        FAIR      52  43  71 SE3       29.76F
BIG FORK       FAIR      54  41  62 CALM      29.80S
LONGVILLE      FAIR      52  43  71 SE5       29.81F
GRAND RAPIDS   FAIR      54  41  61 S12       29.84F
CRANE LAKE     FAIR      39  36  87 S3        29.83F
ORR            FAIR      50  36  57 SE3       29.79F
COOK           FAIR      55  39  54 S5        29.83F
WALKER         FAIR      56  44  63 S7        29.78F
$$
MNZ012-019>021-037-200900-
   Northeast Minnesota

CITY           SKY/WX    TMP DP  RH WIND       PRES   REMARKS
DULUTH         FAIR      55  40  56 SW12      29.87F
ELY            FAIR      52  37  58 CALM      29.85S
HIBBING        FAIR      35  32  88 CALM      29.84F
EVELETH        FAIR      50  33  52 S3        29.86F
DULUTH HARBOR  FAIR      52  46  82 CALM      29.88F
TWO HARBORS    FAIR      43  37  81 CALM      29.86F
SILVER BAY     FAIR      37  36  93 CALM      29.87S
GRAND MARAIS     N/A     43  39  86 N3        29.89S
G MARAIS ARPRT FAIR      48  34  57 S3        29.90F
$$
MNZ029>031-032-039>041-046>048-054>057-064-200900-
   West Central Minnesota

CITY           SKY/WX    TMP DP  RH WIND       PRES   REMARKS
FERGUS FALLS   FAIR      55  46  71 S12       29.76F
WHEATON        FAIR      52  46  82 SE13      29.75F
MORRIS         FAIR      52  48  87 SE9       29.78F
ALEXANDRIA     FAIR      56  49  77 S12       29.82F
ELBOW LAKE     FAIR      54  48  82 SE12      29.77F
WADENA         FAIR      52  45  76 SE6       29.79F
GLENWOOD       FAIR      54  48  82 S6        29.83S
APPLETON       FAIR      57  48  72 SE8       29.78F
BENSON         FAIR      55  48  76 S9        29.82S
ORTONVILLE     FAIR      52  46  82 NE6       29.76F
MADISON        FAIR      66  52  59 S12       29.78F
WILLMAR        FAIR      52  48  87 SE6       29.85F
$$
MNZ033>034-036-042>043-049>051-058-059-200900-
   Central Minnesota

CITY           SKY/WX    TMP DP  RH WIND       PRES   REMARKS
ST CLOUD       FAIR      51  47  86 SE8       29.87F
SAUK CENTRE    FAIR      51  47  85 SE8       29.83F
PAYNESVILLE    FAIR      55  50  82 S8        29.85F
AITKIN         FAIR      54  43  66 S6        29.83F
PINE RIVER     FAIR      48  39  71 SE5       29.85F
BRAINERD       FAIR      54  45  71 S10       29.83F
STAPLES        FAIR      52  45  76 S7        29.81F
LONG PRAIRIE   FAIR      50  45  81 SE8       29.83F
LITTLE FALLS   FAIR      50  39  66 SE6       29.85S
LITCHFIELD     FAIR      57  52  82 CALM      29.87S
BUFFALO        FAIR      57  49  76 S5        29.89S
MAPLE LAKE     FAIR      54  50  86 S5        29.88F
HUTCHINSON     FAIR      56  52  84 S6        29.89S
$$
MNZ037-044-045-052-053-200900-
   East Central Minnesota

CITY           SKY/WX    TMP DP  RH WIND       PRES   REMARKS
PRINCETON      FAIR      46  43  87 E3        29.88F
MORA           FAIR      39  36  87 CALM      29.90S
CAMBRIDGE      FAIR      54  43  66 SE3       29.89F
RUSH CITY      MOCLDY    52  42  69 S6        29.90S
MOOSE LAKE     FAIR      52  39  62 S6        29.86F
HINCKLEY       FAIR      45  39  81 CALM      29.89F
CLOQUET        FAIR      54  37  54 S8        29.87F
MCGREGOR       FAIR      52  41  66 S6        29.85F
$$
MNZ071>073-080-081-089-090-097-098-200900-
   Southwest Minnesota

CITY           SKY/WX    TMP DP  RH WIND       PRES   REMARKS
MONTEVIDEO     FAIR      55  50  82 S7        29.81F
GRANITE FALLS  FAIR      57  51  80 SE10      29.84F
CANBY          FAIR      67  49  53 SW15G23   29.79F
MARSHALL       FAIR      63  50  62 SW20G28   29.81S
REDWOOD FALLS  FAIR      54  48  80 S8        29.85F
OLIVIA         FAIR      54  50  87 S8        29.85S
PIPESTONE      FAIR      57  48  72 S10       29.86F
WORTHINGTON    FAIR      59  49  69 S12       29.90F
JACKSON        FAIR      55  48  76 S12       29.92S
TRACY          FAIR      65  51  61 SW21G26   29.85S
SLAYTON        FAIR      60  50  68 S13G22    29.89S
$$
MNZ065>067-074>077-082>085-091>093-200900-
   South Central Minnesota

CITY           SKY/WX    TMP DP  RH WIND       PRES   REMARKS
MANKATO        FAIR      58  51  78 S10       29.92S
NEW ULM          N/A     54  48  82 S10       29.89R
ST JAMES       FAIR      55  50  82 S9        29.91S
FAIRMONT       FAIR      54  50  86 S10       29.93S
GLENCOE        FAIR      57  51  79 S6        29.89S
FARIBAULT      FAIR      55  50  82 S8        29.94S
OWATONNA       FAIR      55  50  82 S14       29.94F
WASECA         FAIR      55  50  82 S9        29.95S
$$
MNZ078>079-086>088-094>096-200900-
   Southeast Minnesota

CITY           SKY/WX    TMP DP  RH WIND       PRES   REMARKS
ROCHESTER      FAIR      53  49  86 S9        29.99S
RED WING       FAIR      55  45  67 SE5       29.94F
STANTON        FAIR      59  50  72 S9        29.92S
DODGE CENTER   FAIR      57  48  72 S13       29.97S
WINONA         FAIR      55  46  71 SE5       29.99F
AUSTIN         FAIR      55  48  76 S7        29.98S
PRESTON        FAIR      56  48  76 S10       30.01S
$$
ABBREVIATIONS USED IN REMARKS
   TC - TEMPERATURES IN CELSIUS
  WCI - WIND CHILL INDEX
   HX - HEAT INDEX
  VSB - VISIBILITY
$$




USA.gov is the U.S. government's official web portal to all federal, state and local government web resources and services.